GW3646 Weather Reports


time (UTC)temp
C
wind
direction
speed
KPH
gust
KPH
rain 1hr
cm
rain 24hr
cm
rain mn
cm
humidity
%
barometer
mb
20260507160012 15 27 6.4 19.3 0.00 0.00 0.00 52 1017.3
20260507155505 15 251 4.8 19.3 0.00 0.00 0.00 52 1017.4
20260507155004 15 268 6.4 19.3 0.00 0.00 0.00 53 1017.5
20260507154520 15 190 4.8 19.3 0.00 0.00 0.00 52 1017.5
20260507154009 15 270 4.8 19.3 0.00 0.00 0.00 54 1017.5
20260507153509 15 248 3.2 17.7 0.00 0.00 0.00 55 1017.6
20260507153021 15 281 4.8 17.7 0.00 0.00 0.00 55 1017.7
20260507152511 15 223 8.0 17.7 0.00 0.00 0.00 55 1017.7
20260507152010 15 250 8.0 17.7 0.00 0.00 0.00 55 1017.9
20260507151506 14 342 4.8 16.1 0.00 0.00 0.00 56 1018.0
20260507151003 14 228 6.4 20.9 0.00 0.00 0.00 56 1018.0
20260507150503 14 200 6.4 20.9 0.00 0.00 0.00 58 1018.1
20260507150011 14 281 3.2 16.1 0.00 0.00 0.00 59 1018.1
20260507145507 13 175 4.8 17.7 0.00 0.00 0.00 62 1018.1
20260507145004 13 268 3.2 17.7 0.00 0.00 0.00 61 1018.2
20260507144514 13 229 3.2 12.9 0.00 0.00 0.00 61 1018.3
20260507144005 13 257 3.2 11.3 0.00 0.00 0.00 63 1018.4
20260507143504 13 309 1.6 11.3 0.00 0.00 0.00 65 1018.4
20260507143022 12 294 1.6 14.5 0.00 0.00 0.00 68 1018.4
20260507142505 12 221 3.2 14.5 0.00 0.00 0.00 66 1018.4
20260507142008 12 223 3.2 14.5 0.00 0.00 0.00 68 1018.4
20260507141523 12 229 3.2 9.7 0.00 0.00 0.00 69 1018.5
20260507141007 12 17 1.6 8.0 0.00 0.00 0.00 70 1018.4
20260507140507 12 238 1.6 8.0 0.00 0.00 0.00 71 1018.6
20260507140028 11 181 1.6 17.7 0.00 0.00 0.00 73 1018.7
20260507135503 11 239 4.8 17.7 0.00 0.00 0.00 73 1018.7
20260507135006 11 239 3.2 11.3 0.00 0.00 0.00 74 1018.7
20260507134516 10 209 3.2 8.0 0.00 0.00 0.00 76 1018.7
20260507134004 10 244 3.2 8.0 0.00 0.00 0.00 79 1018.7
20260507133508 10 22 1.6 6.4 0.00 0.00 0.00 80 1018.7
20260507133018 10 234 0.0 9.7 0.00 0.00 0.00 82 1018.8
20260507132506 9 182 1.6 9.7 0.00 0.00 0.00 82 1018.8
20260507132014 9 266 3.2 6.4 0.00 0.00 0.00 83 1018.8
20260507131527 8 226 0.0 8.0 0.00 0.00 0.00 85 1018.7
20260507131007 8 261 1.6 8.0 0.00 0.00 0.00 86 1018.8
20260507130506 8 242 3.2 6.4 0.00 0.00 0.00 88 1018.8
20260507130026 7 223 0.0 6.4 0.00 0.00 0.00 89 1018.8
20260507125507 7 242 0.0 6.4 0.00 0.00 0.00 90 1018.8
20260507125011 7 78 0.0 4.8 0.00 0.00 0.00 91 1018.8
20260507124526 7 78 0.0 4.8 0.00 0.00 0.00 93 1018.8
20260507124004 7 78 0.0 4.8 0.00 0.00 0.00 94 1018.7
20260507123504 6 78 0.0 3.2 0.00 0.00 0.00 94 1018.7
20260507123015 6 78 0.0 0.0 0.00 0.00 0.00 94 1018.6
20260507122504 6 78 0.0 0.0 0.00 0.00 0.00 94 1018.7
20260507122008 5 78 0.0 0.0 0.00 0.00 0.00 93 1018.7
20260507121519 5 78 0.0 0.0 0.00 0.00 0.00 93 1018.7
20260507121008 5 78 0.0 0.0 0.00 0.00 0.00 93 1018.7
20260507120507 5 78 0.0 0.0 0.00 0.00 0.00 92 1018.7
20260507120037 5 78 0.0 0.0 0.00 0.00 0.00 92 1018.6
20260507115507 5 78 0.0 0.0 0.00 0.00 0.00 91 1018.5
20260507115011 5 78 0.0 0.0 0.00 0.00 0.00 91 1018.4
20260507114527 5 78 0.0 0.0 0.00 0.00 0.00 91 1018.4
20260507114010 5 78 0.0 0.0 0.00 0.00 0.00 92 1018.4
20260507113511 5 78 0.0 0.0 0.00 0.00 0.00 92 1018.3
20260507113038 5 78 0.0 0.0 0.00 0.00 0.00 91 1018.4
20260507112508 5 78 0.0 0.0 0.00 0.00 0.00 91 1018.3
20260507112007 5 78 0.0 0.0 0.00 0.00 0.00 90 1018.4
20260507111514 5 78 0.0 0.0 0.00 0.00 0.00 90 1018.3
20260507111009 5 78 0.0 0.0 0.00 0.00 0.00 91 1018.2
20260507110505 5 78 0.0 0.0 0.00 0.00 0.00 91 1018.2
20260507110020 5 78 0.0 0.0 0.00 0.00 0.00 91 1018.2
20260507105507 5 78 0.0 0.0 0.00 0.00 0.00 91 1018.2
20260507105006 6 78 0.0 0.0 0.00 0.00 0.00 90 1018.2
20260507104524 6 78 0.0 0.0 0.00 0.00 0.00 90 1018.2
20260507104012 6 78 0.0 0.0 0.00 0.00 0.00 90 1018.2
20260507103508 6 78 0.0 0.0 0.00 0.00 0.00 89 1018.3
20260507103023 6 78 0.0 0.0 0.00 0.00 0.00 90 1018.4
20260507102507 6 78 0.0 0.0 0.00 0.00 0.00 89 1018.6
20260507102011 6 78 0.0 0.0 0.00 0.00 0.00 89 1018.7
20260507101530 6 78 0.0 0.0 0.00 0.00 0.00 88 1018.6
20260507101007 6 78 0.0 0.0 0.00 0.00 0.00 89 1018.6
20260507100504 6 78 0.0 0.0 0.00 0.00 0.00 87 1018.6
20260507100024 6 78 0.0 0.0 0.00 0.00 0.00 87 1018.7
20260507095506 6 78 0.0 0.0 0.00 0.00 0.00 87 1018.6
20260507095009 6 78 0.0 0.0 0.00 0.00 0.00 87 1018.7
20260507094520 6 78 0.0 0.0 0.00 0.00 0.00 85 1018.7
20260507094007 6 78 0.0 0.0 0.00 0.00 0.00 83 1018.7
20260507093508 7 78 0.0 0.0 0.00 0.00 0.00 83 1018.7
20260507093024 7 78 0.0 0.0 0.00 0.00 0.00 83 1018.7
20260507092507 7 78 0.0 0.0 0.00 0.00 0.00 84 1018.7
20260507092004 7 78 0.0 0.0 0.00 0.00 0.00 84 1018.7
20260507091504 7 78 0.0 0.0 0.00 0.00 0.00 83 1018.7
20260507091005 7 78 0.0 0.0 0.00 0.00 0.00 82 1018.7
20260507090504 8 78 0.0 0.0 0.00 0.00 0.00 82 1018.7
20260507090007 8 78 0.0 0.0 0.00 0.00 0.00 81 1018.7
20260507085502 8 78 0.0 0.0 0.00 0.00 0.00 80 1018.7
20260507085004 8 78 0.0 0.0 0.00 0.00 0.00 80 1018.7
20260507084503 8 78 0.0 0.0 0.00 0.00 0.00 80 1018.6
20260507084003 8 78 0.0 0.0 0.00 0.00 0.00 79 1018.7
20260507083503 9 78 0.0 0.0 0.00 0.00 0.00 79 1018.8
20260507083006 9 78 0.0 0.0 0.00 0.00 0.00 78 1018.8
20260507082503 9 78 0.0 0.0 0.00 0.00 0.00 78 1018.9
20260507082003 9 78 0.0 0.0 0.00 0.00 0.00 78 1018.8
20260507081507 9 78 0.0 0.0 0.00 0.00 0.00 78 1018.8
20260507081004 9 78 0.0 0.0 0.00 0.00 0.00 78 1018.9
20260507080504 9 78 0.0 0.0 0.00 0.00 0.00 78 1018.9
20260507080005 9 78 0.0 0.0 0.00 0.00 0.00 78 1018.9
20260507075503 9 78 0.0 0.0 0.00 0.00 0.00 78 1019.0
20260507075004 9 78 0.0 0.0 0.00 0.00 0.00 78 1019.1
20260507074506 9 78 0.0 0.0 0.00 0.00 0.00 79 1019.1
20260507074005 9 78 0.0 0.0 0.00 0.00 0.00 78 1019.1
20260507073503 9 78 0.0 0.0 0.00 0.00 0.00 78 1019.1
20260507073003 9 78 0.0 0.0 0.00 0.00 0.00 78 1019.1
20260507072503 9 78 0.0 0.0 0.00 0.00 0.00 78 1019.1
20260507072002 9 78 0.0 0.0 0.00 0.00 0.00 78 1019.2
20260507071505 9 78 0.0 0.0 0.00 0.00 0.00 78 1019.3
20260507071003 9 78 0.0 0.0 0.00 0.00 0.00 77 1019.2
20260507070504 9 78 0.0 0.0 0.00 0.00 0.00 77 1019.3
20260507070010 9 78 0.0 0.0 0.00 0.00 0.00 77 1019.3
20260507065507 9 78 0.0 0.0 0.00 0.00 0.00 77 1019.5
20260507065004 9 78 0.0 0.0 0.00 0.00 0.00 76 1019.5
20260507064508 9 78 0.0 1.6 0.00 0.00 0.00 76 1019.5
20260507064006 9 78 0.0 1.6 0.00 0.00 0.00 77 1019.4
20260507063504 9 78 0.0 0.0 0.00 0.00 0.00 78 1019.3
20260507063007 9 78 0.0 0.0 0.00 0.00 0.00 78 1019.3
20260507062504 9 78 0.0 0.0 0.00 0.00 0.00 78 1019.4
20260507062003 9 78 0.0 0.0 0.00 0.00 0.00 79 1019.3
20260507061509 8 78 0.0 0.0 0.00 0.00 0.00 79 1019.4
20260507061006 8 78 0.0 0.0 0.00 0.00 0.00 79 1019.3
20260507060503 8 78 0.0 0.0 0.00 0.00 0.00 79 1019.3
20260507060006 8 78 0.0 0.0 0.00 0.00 0.00 80 1019.5
20260507055504 8 78 0.0 0.0 0.00 0.00 0.00 81 1019.6
20260507055004 8 78 0.0 0.0 0.00 0.00 0.00 82 1019.6
20260507054508 8 78 0.0 0.0 0.00 0.00 0.00 82 1019.6
20260507054004 8 78 0.0 0.0 0.00 0.00 0.00 81 1019.7
20260507053504 8 78 0.0 0.0 0.00 0.00 0.00 81 1019.7
20260507053010 8 78 0.0 0.0 0.00 0.00 0.00 81 1019.5
20260507052502 8 78 0.0 0.0 0.00 0.00 0.00 80 1019.5
20260507052004 8 78 0.0 0.0 0.00 0.00 0.00 80 1019.5
20260507051510 8 78 0.0 0.0 0.00 0.00 0.00 80 1019.5
20260507051005 8 78 0.0 0.0 0.00 0.00 0.00 78 1019.5
20260507050503 8 78 0.0 0.0 0.00 0.00 0.00 78 1019.4
20260507050010 8 78 0.0 0.0 0.00 0.00 0.00 78 1019.5
20260507045504 8 78 0.0 0.0 0.00 0.00 0.00 76 1019.4
20260507045004 8 78 0.0 0.0 0.00 0.00 0.00 76 1019.4
20260507044510 8 78 0.0 0.0 0.00 0.00 0.00 75 1019.4
20260507044004 8 78 0.0 0.0 0.00 0.00 0.00 75 1019.3
20260507043503 8 78 0.0 0.0 0.00 0.00 0.00 74 1019.3
20260507043008 8 78 0.0 0.0 0.00 0.00 0.00 74 1019.3
20260507042505 9 78 0.0 0.0 0.00 0.00 0.00 73 1019.3
20260507042004 9 78 0.0 0.0 0.00 0.00 0.00 73 1019.3
20260507041510 10 78 0.0 0.0 0.00 0.00 0.00 73 1019.3
20260507041005 10 78 0.0 0.0 0.00 0.00 0.00 72 1019.2
20260507040504 10 78 0.0 0.0 0.00 0.00 0.00 71 1019.2
20260507040009 10 78 0.0 0.0 0.00 0.00 0.00 71 1019.4
20260507035502 10 78 0.0 0.0 0.00 0.00 0.00 70 1019.4
20260507035005 10 78 0.0 0.0 0.00 0.00 0.00 70 1019.4
20260507034514 10 78 0.0 0.0 0.00 0.00 0.00 68 1019.5
20260507034004 11 78 0.0 0.0 0.00 0.00 0.00 68 1019.5
20260507033503 11 78 0.0 0.0 0.00 0.00 0.00 70 1019.3
20260507033012 11 78 0.0 0.0 0.00 0.00 0.00 70 1019.3
20260507032503 11 78 0.0 0.0 0.00 0.00 0.00 70 1019.2
20260507032006 11 78 0.0 0.0 0.00 0.00 0.00 68 1019.2
20260507031513 11 78 0.0 0.0 0.00 0.00 0.00 67 1019.3
20260507031005 11 78 0.0 0.0 0.00 0.00 0.00 67 1019.3
20260507030506 11 78 0.0 0.0 0.00 0.00 0.00 66 1019.3
20260507030013 11 78 0.0 0.0 0.00 0.00 0.00 65 1019.2
20260507025502 11 78 0.0 0.0 0.00 0.00 0.00 65 1019.2
20260507025003 11 78 0.0 0.0 0.00 0.00 0.00 64 1019.1
20260507024511 12 78 0.0 0.0 0.00 0.00 0.00 61 1019.1
20260507024009 12 78 0.0 0.0 0.00 0.00 0.00 60 1019.1
20260507023503 12 78 0.0 0.0 0.00 0.00 0.00 60 1019.1
20260507023015 12 78 0.0 0.0 0.00 0.00 0.00 60 1018.9
20260507022503 12 78 0.0 0.0 0.00 0.00 0.00 60 1019.0
20260507022007 12 78 0.0 0.0 0.00 0.00 0.00 60 1019.0
20260507021514 12 78 0.0 0.0 0.00 0.00 0.00 59 1018.9
20260507021003 12 78 0.0 0.0 0.00 0.00 0.00 58 1018.9
20260507020503 12 78 0.0 0.0 0.00 0.00 0.00 57 1018.8
20260507020014 12 78 0.0 0.0 0.00 0.00 0.00 55 1018.7
20260507015503 12 78 0.0 0.0 0.00 0.00 0.00 55 1018.5
20260507015007 13 78 0.0 0.0 0.00 0.00 0.00 54 1018.4
20260507014520 13 78 0.0 0.0 0.00 0.00 0.00 53 1018.3
20260507014005 13 78 0.0 0.0 0.00 0.00 0.00 52 1018.3
20260507013503 13 78 0.0 0.0 0.00 0.00 0.00 52 1018.2
20260507013014 13 78 0.0 1.6 0.00 0.00 0.00 52 1018.2
20260507012503 13 78 0.0 1.6 0.00 0.00 0.00 52 1018.2
20260507012004 13 78 0.0 1.6 0.00 0.00 0.00 51 1018.1
20260507011508 13 78 0.0 3.2 0.00 0.00 0.00 51 1018.1
20260507011005 13 78 0.0 4.8 0.00 0.00 0.00 50 1018.1
20260507010503 13 78 0.0 4.8 0.00 0.00 0.00 50 1018.1
20260507010025 13 78 0.0 4.8 0.00 0.00 0.00 51 1018.1
20260507005503 13 78 0.0 4.8 0.00 0.00 0.00 50 1018.1
20260507005002 13 78 0.0 4.8 0.00 0.00 0.00 50 1018.1
20260507004506 13 78 1.6 4.8 0.00 0.00 0.00 49 1018.1
20260507004004 14 78 1.6 6.4 0.00 0.00 0.00 48 1018.1
20260507003503 14 68 0.0 6.4 0.00 0.00 0.00 49 1018.1
20260507003002 14 78 1.6 6.4 0.00 0.00 0.00 49 1018.0
20260507002502 14 78 0.0 6.4 0.00 0.00 0.00 48 1018.1
20260507002003 14 78 1.6 9.7 0.00 0.00 0.00 48 1018.1
20260507001504 14 84 1.6 8.0 0.00 0.00 0.00 47 1018.1
20260507001003 14 65 1.6 8.0 0.00 0.00 0.00 47 1018.1
20260507000503 14 84 1.6 8.0 0.00 0.00 0.00 47 1018.1
20260507000008 14 34 1.6 6.4 0.00 0.00 0.00 47 1018.1
20260506235504 14 64 1.6 6.4 0.00 0.00 0.00 45 1017.9
20260506235004 14 68 1.6 6.4 0.00 0.00 0.00 45 1017.9
20260506234513 15 73 0.0 6.4 0.00 0.00 0.00 46 1017.8
20260506234007 15 84 0.0 6.4 0.00 0.00 0.00 45 1017.8
20260506233504 15 84 3.2 8.0 0.00 0.00 0.00 46 1017.7
20260506233010 15 88 1.6 8.0 0.00 0.00 0.00 46 1017.7
20260506232502 15 57 3.2 6.4 0.00 0.00 0.00 46 1017.8
20260506232002 15 65 1.6 6.4 0.00 0.00 0.00 45 1017.7
20260506231504 15 231 0.0 9.7 0.00 0.00 0.00 46 1017.7
20260506231004 15 69 1.6 9.7 0.00 0.00 0.00 45 1017.7
20260506230502 15 46 1.6 11.3 0.00 0.00 0.00 44 1017.7
20260506230005 15 54 0.0 14.5 0.00 0.00 0.00 46 1017.7
20260506225504 15 85 4.8 14.5 0.00 0.00 0.00 44 1017.8
20260506225005 15 63 1.6 6.4 0.00 0.00 0.00 43 1017.6
20260506224523 15 321 1.6 6.4 0.00 0.00 0.00 43 1017.6
20260506224004 15 71 1.6 6.4 0.00 0.00 0.00 44 1017.4
20260506223506 15 82 0.0 9.7 0.00 0.00 0.00 46 1017.3
20260506223012 15 64 1.6 9.7 0.00 0.00 0.00 42 1017.3
20260506222504 16 280 3.2 9.7 0.00 0.00 0.00 42 1017.3
20260506222008 16 93 1.6 12.9 0.00 0.00 0.00 43 1017.3
20260506221514 16 61 3.2 12.9 0.00 0.00 0.00 42 1017.3
20260506221005 16 201 1.6 12.9 0.00 0.00 0.00 41 1017.4
20260506220503 16 82 3.2 12.9 0.00 0.00 0.00 43 1017.4
20260506220012 16 184 1.6 11.3 0.00 0.00 0.00 42 1017.5
20260506215502 16 77 3.2 16.1 0.00 0.00 0.00 42 1017.5
20260506215003 16 82 4.8 16.1 0.00 0.00 0.00 41 1017.5
20260506214510 16 68 6.4 12.9 0.00 0.00 0.00 41 1017.6
20260506214005 16 39 1.6 9.7 0.00 0.00 0.00 40 1017.6
20260506213505 16 88 3.2 12.9 0.00 0.00 0.00 40 1017.7
20260506213011 16 71 4.8 12.9 0.00 0.00 0.00 40 1017.8
20260506212504 16 49 3.2 9.7 0.00 0.00 0.00 41 1017.8
20260506212006 16 44 1.6 9.7 0.00 0.00 0.00 40 1017.8
20260506211519 16 63 3.2 14.5 0.00 0.00 0.00 43 1017.8
20260506211009 15 217 1.6 14.5 0.00 0.00 0.00 44 1017.8
20260506210503 16 61 3.2 12.9 0.00 0.00 0.00 41 1017.8
20260506210013 16 89 4.8 11.3 0.00 0.00 0.00 40 1017.9
20260506205507 16 64 3.2 9.7 0.00 0.00 0.00 40 1017.9
20260506205003 16 154 1.6 11.3 0.00 0.00 0.00 39 1018.0
20260506204504 16 69 4.8 12.9 0.00 0.00 0.00 40 1018.0
20260506204004 16 74 0.0 12.9 0.00 0.00 0.00 40 1018.2
20260506203506 16 61 3.2 8.0 0.00 0.00 0.00 42 1018.0
20260506203008 16 61 3.2 6.4 0.00 0.00 0.00 43 1018.2
20260506202503 16 52 3.2 6.4 0.00 0.00 0.00 42 1018.4
20260506202004 16 11 1.6 12.9 0.00 0.00 0.00 40 1018.4
20260506201516 16 61 3.2 12.9 0.00 0.00 0.00 42 1018.4
20260506201006 16 345 3.2 8.0 0.00 0.00 0.00 44 1018.5
20260506200505 15 57 3.2 8.0 0.00 0.00 0.00 43 1018.6
20260506200017 15 178 1.6 12.9 0.00 0.00 0.00 44 1018.7
20260506195503 15 51 4.8 12.9 0.00 0.00 0.00 43 1018.7
20260506195007 15 70 3.2 9.7 0.00 0.00 0.00 42 1018.7
20260506194528 15 328 1.6 12.9 0.00 0.00 0.00 41 1018.8
20260506194006 15 85 3.2 12.9 0.00 0.00 0.00 41 1018.8
20260506193503 15 69 3.2 17.7 0.00 0.00 0.00 42 1018.8
20260506193006 16 79 1.6 17.7 0.00 0.00 0.00 42 1018.7
20260506192504 16 67 3.2 16.1 0.00 0.00 0.00 46 1018.7
20260506192004 15 53 3.2 11.3 0.00 0.00 0.00 43 1018.7
20260506191514 15 76 1.6 11.3 0.00 0.00 0.00 42 1018.7
20260506191004 15 60 4.8 14.5 0.00 0.00 0.00 44 1018.7
20260506190505 15 90 4.8 14.5 0.00 0.00 0.00 42 1018.8
20260506190020 16 352 3.2 14.5 0.00 0.00 0.00 44 1018.7
20260506185507 15 51 1.6 9.7 0.00 0.00 0.00 45 1018.7
20260506185006 15 93 4.8 14.5 0.00 0.00 0.00 43 1018.8
20260506184524 15 96 3.2 14.5 0.00 0.00 0.00 44 1018.8
20260506184006 15 53 3.2 19.3 0.00 0.00 0.00 43 1018.9
20260506183508 14 9 6.4 19.3 0.00 0.00 0.00 46 1018.9
20260506183018 14 95 1.6 19.3 0.00 0.00 0.00 50 1018.9
20260506182507 13 92 4.8 19.3 0.00 0.00 0.00 47 1019.2
20260506182004 14 64 4.8 14.5 0.00 0.00 0.00 46 1019.2
20260506181508 15 61 3.2 14.5 0.00 0.00 0.00 48 1019.3
20260506181004 14 72 3.2 16.1 0.00 0.00 0.00 52 1019.4
20260506180504 14 76 6.4 16.1 0.00 0.00 0.00 48 1019.4
20260506180014 14 105 3.2 12.9 0.00 0.00 0.00 49 1019.5
20260506175505 14 63 4.8 14.5 0.00 0.00 0.00 50 1019.6
20260506175006 13 77 6.4 14.5 0.00 0.00 0.00 49 1019.6
20260506174521 14 81 4.8 12.9 0.00 0.00 0.00 51 1019.7
20260506174007 13 360 1.6 12.9 0.00 0.00 0.00 54 1019.6
20260506173507 13 70 3.2 14.5 0.00 0.00 0.00 54 1019.7
20260506173022 13 77 6.4 17.7 0.00 0.00 0.00 51 1019.8
20260506172506 13 40 3.2 17.7 0.00 0.00 0.00 54 1019.7
20260506172006 13 107 4.8 16.1 0.00 0.00 0.00 55 1019.7
20260506171525 13 78 6.4 16.1 0.00 0.00 0.00 55 1019.8
20260506171011 12 70 1.6 14.5 0.00 0.00 0.00 57 1019.7
20260506170508 12 59 3.2 17.7 0.00 0.00 0.00 57 1019.7
20260506170011 12 76 8.0 17.7 0.00 0.00 0.00 56 1019.8
20260506165506 12 73 6.4 17.7 0.00 0.00 0.00 58 1019.7
20260506165006 12 72 6.4 14.5 0.00 0.00 0.00 57 1019.8
20260506164517 12 39 3.2 14.5 0.00 0.00 0.00 59 1019.8
20260506164008 12 57 6.4 17.7 0.00 0.00 0.00 62 1019.8
20260506163508 11 61 6.4 17.7 0.00 0.00 0.00 60 1019.7
20260506163022 11 60 6.4 14.5 0.00 0.00 0.00 62 1019.3
20260506162506 11 61 4.8 14.5 0.00 0.00 0.00 63 1019.4
20260506162011 11 69 3.2 12.9 0.00 0.00 0.00 64 1019.5
20260506161522 11 80 4.8 12.9 0.00 0.00 0.00 63 1019.6
20260506161006 11 55 4.8 12.9 0.00 0.00 0.00 67 1019.5
20260506160509 11 53 3.2 17.7 0.00 0.00 0.00 66 1019.7